GW4846 Weather Reports


Display with metric or nautical units.
time (UTC)temp
F
wind
direction
speed
MPH
gust
MPH
rain 1hr
in
rain 24hr
in
rain mn
in
humidity
%
barometer
mb
20260510182510 88 298 6.0 16.0 0.00 0.02 0.00 70 1016.8
20260510182003 89 284 10.0 19.0 0.00 0.02 0.00 71 1016.9
20260510181522 89 247 5.0 19.0 0.00 0.02 0.00 71 1017.0
20260510181008 88 287 10.0 16.0 0.00 0.02 0.00 71 1017.1
20260510180504 89 265 5.0 13.0 0.00 0.02 0.00 70 1017.1
20260510180020 89 278 7.0 14.0 0.00 0.02 0.00 69 1017.0
20260510175504 91 255 6.0 16.0 0.00 0.02 0.00 68 1017.0
20260510175003 91 284 6.0 16.0 0.00 0.02 0.00 70 1017.0
20260510174514 90 315 7.0 16.0 0.00 0.02 0.00 69 1017.0
20260510174009 90 285 8.0 15.0 0.00 0.02 0.00 70 1017.2
20260510173514 90 266 5.0 15.0 0.00 0.02 0.00 70 1017.3
20260510173011 90 284 8.0 15.0 0.00 0.02 0.00 70 1017.3
20260510172510 90 300 6.0 18.0 0.00 0.02 0.00 70 1017.3
20260510172012 90 238 8.0 18.0 0.00 0.02 0.00 70 1017.5
20260510171510 91 259 10.0 17.0 0.00 0.02 0.00 69 1017.6
20260510171007 91 304 10.0 18.0 0.00 0.02 0.00 69 1017.5
20260510170507 91 263 10.0 18.0 0.00 0.02 0.00 69 1017.4
20260510170007 91 267 7.0 15.0 0.00 0.02 0.00 69 1017.4
20260510165505 91 267 8.0 16.0 0.00 0.02 0.00 69 1017.4
20260510165006 91 277 10.0 16.0 0.00 0.02 0.00 69 1017.5
20260510164529 91 294 6.0 14.0 0.00 0.02 0.00 67 1017.5
20260510164007 91 271 7.0 17.0 0.00 0.02 0.00 65 1017.5
20260510163507 92 272 10.0 17.0 0.00 0.02 0.00 68 1017.4
20260510163024 91 300 6.0 15.0 0.00 0.02 0.00 69 1017.4
20260510162506 91 303 8.0 15.0 0.00 0.02 0.00 67 1017.3
20260510162005 91 276 6.0 13.0 0.00 0.02 0.00 67 1017.4
20260510161517 91 268 3.0 14.0 0.00 0.02 0.00 65 1017.4
20260510161008 90 268 7.0 14.0 0.00 0.02 0.00 68 1017.4
20260510160507 90 311 5.0 10.0 0.00 0.02 0.00 69 1017.4
20260510160016 90 309 5.0 10.0 0.00 0.02 0.00 65 1017.5
20260510155506 89 223 4.0 10.0 0.00 0.02 0.00 65 1017.5
20260510155011 90 246 5.0 16.0 0.00 0.02 0.00 66 1017.6
20260510154512 90 301 11.0 16.0 0.00 0.02 0.00 66 1017.5
20260510154003 89 261 5.0 12.0 0.00 0.02 0.00 67 1017.5
20260510153511 89 242 2.0 11.0 0.00 0.02 0.00 69 1017.4
20260510153018 88 265 5.0 11.0 0.00 0.02 0.00 68 1017.4
20260510152512 88 198 2.0 10.0 0.00 0.02 0.00 66 1017.3
20260510152011 87 258 3.0 13.0 0.00 0.02 0.00 67 1017.3
20260510151514 88 218 5.0 13.0 0.00 0.02 0.00 66 1017.3
20260510151007 88 234 6.0 13.0 0.00 0.02 0.00 66 1017.3
20260510150506 88 240 5.0 11.0 0.00 0.02 0.00 66 1017.4
20260510150012 88 183 5.0 10.0 0.00 0.02 0.00 67 1017.4
20260510145508 87 285 4.0 10.0 0.00 0.02 0.00 69 1017.3
20260510145006 86 277 2.0 11.0 0.00 0.02 0.00 70 1017.2
20260510144535 86 281 6.0 11.0 0.00 0.02 0.00 70 1017.3
20260510144008 86 279 4.0 13.0 0.00 0.02 0.00 69 1017.4
20260510143504 86 200 4.0 13.0 0.00 0.02 0.00 72 1017.4
20260510143026 85 222 7.0 12.0 0.00 0.02 0.00 72 1017.4
20260510142512 85 210 3.0 11.0 0.00 0.02 0.00 75 1017.4
20260510142013 84 212 4.0 13.0 0.00 0.02 0.00 75 1017.3
20260510141515 83 219 6.0 13.0 0.00 0.02 0.00 76 1017.1
20260510141009 83 197 4.0 11.0 0.00 0.02 0.00 77 1017.1
20260510140512 83 157 6.0 11.0 0.00 0.02 0.00 77 1017.2
20260510140016 82 207 4.0 11.0 0.00 0.02 0.00 78 1017.2
20260510135506 82 171 6.0 12.0 0.00 0.02 0.00 78 1017.1
20260510135011 81 182 5.0 12.0 0.00 0.02 0.00 79 1017.0
20260510134524 81 192 5.0 11.0 0.00 0.02 0.00 79 1017.0
20260510134008 81 194 4.0 11.0 0.00 0.02 0.00 80 1017.1
20260510133508 80 163 7.0 11.0 0.00 0.02 0.00 80 1017.1
20260510133025 80 184 6.0 13.0 0.00 0.02 0.00 81 1017.2
20260510132514 80 159 6.0 13.0 0.00 0.02 0.00 80 1017.1
20260510132014 80 160 3.0 9.0 0.00 0.02 0.00 82 1017.1
20260510131519 79 162 3.0 11.0 0.00 0.02 0.00 82 1016.9
20260510131012 79 174 5.0 11.0 0.00 0.02 0.00 82 1017.1
20260510130507 78 165 4.0 10.0 0.00 0.02 0.00 83 1017.0
20260510130017 78 189 6.0 10.0 0.00 0.02 0.00 83 1016.8
20260510125508 78 134 6.0 10.0 0.00 0.02 0.00 83 1016.7
20260510125011 77 182 5.0 12.0 0.00 0.02 0.00 84 1016.8
20260510124524 77 164 5.0 12.0 0.00 0.02 0.00 84 1016.7
20260510124010 77 169 3.0 11.0 0.00 0.02 0.00 85 1016.7
20260510123510 76 136 6.0 11.0 0.00 0.02 0.00 85 1016.7
20260510123018 76 184 6.0 11.0 0.00 0.02 0.00 85 1016.7
20260510122506 76 170 6.0 10.0 0.00 0.02 0.00 86 1016.6
20260510122015 75 167 3.0 8.0 0.00 0.02 0.00 86 1016.6
20260510121529 75 173 4.0 9.0 0.00 0.02 0.00 87 1016.5
20260510121010 74 182 3.0 9.0 0.00 0.02 0.00 87 1016.4
20260510120510 74 132 3.0 8.0 0.00 0.02 0.00 87 1016.3
20260510120037 74 184 3.0 8.0 0.00 0.02 0.00 88 1016.3
20260510115511 74 160 4.0 8.0 0.00 0.02 0.00 88 1016.4
20260510115010 74 163 4.0 8.0 0.00 0.02 0.00 88 1016.2
20260510114524 73 190 3.0 8.0 0.00 0.02 0.00 89 1016.1
20260510114013 73 148 4.0 8.0 0.00 0.02 0.00 89 1016.1
20260510113510 73 159 4.0 8.0 0.00 0.02 0.00 89 1016.0
20260510113024 73 181 3.0 7.0 0.00 0.02 0.00 89 1015.9
20260510112515 73 140 3.0 8.0 0.00 0.02 0.00 89 1015.8
20260510112007 73 149 4.0 8.0 0.00 0.02 0.00 89 1015.7
20260510111521 73 182 3.0 8.0 0.00 0.02 0.00 90 1015.7
20260510111009 72 187 3.0 8.0 0.00 0.02 0.00 90 1015.7
20260510110510 72 167 2.0 6.0 0.00 0.02 0.00 90 1015.6
20260510110025 72 180 3.0 7.0 0.00 0.02 0.00 90 1015.5
20260510105510 72 167 3.0 7.0 0.00 0.02 0.00 91 1015.3
20260510105009 72 167 3.0 7.0 0.00 0.02 0.00 91 1015.2
20260510104528 72 150 2.0 5.0 0.00 0.02 0.00 91 1015.2
20260510104008 71 165 2.0 5.0 0.00 0.02 0.00 90 1015.1
20260510103510 71 166 1.0 4.0 0.00 0.02 0.00 90 1015.1
20260510103027 71 162 1.0 4.0 0.00 0.02 0.00 90 1015.1
20260510102511 72 152 1.0 3.0 0.00 0.02 0.00 90 1015.2
20260510102013 72 161 1.0 3.0 0.00 0.02 0.00 90 1015.2
20260510101529 72 173 1.0 4.0 0.00 0.02 0.00 90 1015.1
20260510101008 72 173 1.0 4.0 0.00 0.02 0.00 90 1015.1
20260510100510 72 121 1.0 2.0 0.00 0.02 0.00 90 1014.9
20260510100029 72 104 0.0 2.0 0.00 0.02 0.00 90 1014.8
20260510095507 72 147 0.0 2.0 0.00 0.02 0.00 90 1014.7
20260510095006 72 142 0.0 3.0 0.00 0.02 0.00 90 1014.7
20260510094534 72 165 0.0 4.0 0.00 0.02 0.00 90 1014.7
20260510094007 72 143 1.0 4.0 0.00 0.02 0.00 89 1014.6
20260510093509 72 164 1.0 2.0 0.00 0.02 0.00 89 1014.5
20260510093024 72 119 0.0 2.0 0.00 0.02 0.00 89 1014.6
20260510092508 72 119 0.0 2.0 0.00 0.02 0.00 89 1014.4
20260510092008 72 124 0.0 2.0 0.00 0.02 0.00 89 1014.3
20260510091523 72 127 1.0 3.0 0.00 0.02 0.00 89 1014.4
20260510091009 72 160 1.0 5.0 0.00 0.02 0.00 89 1014.3
20260510090510 72 121 1.0 4.0 0.00 0.02 0.00 89 1014.3
20260510090020 73 124 1.0 3.0 0.00 0.02 0.00 89 1014.2
20260510085507 73 114 1.0 3.0 0.00 0.02 0.00 89 1014.1
20260510085011 73 103 0.0 2.0 0.00 0.02 0.00 89 1014.1
20260510084515 73 120 1.0 2.0 0.00 0.02 0.00 88 1014.1
20260510084008 73 128 0.0 3.0 0.00 0.02 0.00 88 1014.1
20260510083512 73 149 1.0 3.0 0.00 0.02 0.00 88 1014.0
20260510083017 73 150 0.0 5.0 0.00 0.02 0.00 88 1013.9
20260510082506 73 146 1.0 5.0 0.00 0.02 0.00 88 1014.0
20260510082014 73 130 1.0 4.0 0.00 0.02 0.00 88 1013.9
20260510081528 73 106 0.0 5.0 0.00 0.02 0.00 88 1013.9
20260510081007 73 169 1.0 8.0 0.00 0.02 0.00 88 1013.9
20260510080507 73 126 2.0 8.0 0.00 0.02 0.00 88 1013.9
20260510080033 73 153 2.0 7.0 0.00 0.02 0.00 88 1013.8
20260510075511 73 149 2.0 7.0 0.00 0.02 0.00 88 1013.8
20260510075009 73 138 1.0 6.0 0.00 0.02 0.00 89 1013.8
20260510074532 73 148 2.0 6.0 0.00 0.02 0.00 89 1013.7
20260510074006 73 145 2.0 7.0 0.00 0.02 0.00 89 1013.8
20260510073508 73 148 2.0 7.0 0.00 0.02 0.00 89 1013.9
20260510073023 73 136 1.0 5.0 0.00 0.02 0.00 89 1014.0
20260510072508 73 169 2.0 5.0 0.00 0.02 0.00 89 1014.1
20260510072013 73 121 2.0 4.0 0.00 0.02 0.00 89 1014.1
20260510071521 73 151 1.0 6.0 0.00 0.02 0.00 89 1014.3
20260510071007 73 153 2.0 8.0 0.00 0.02 0.00 89 1014.3
20260510070509 73 126 4.0 8.0 0.00 0.02 0.00 89 1014.3
20260510070019 73 157 2.0 8.0 0.00 0.02 0.00 89 1014.4
20260510065512 73 153 5.0 8.0 0.00 0.02 0.00 89 1014.4
20260510065005 73 157 3.0 7.0 0.00 0.02 0.00 89 1014.3
20260510064512 73 159 2.0 6.0 0.00 0.02 0.00 90 1014.4
20260510064008 73 122 1.0 5.0 0.00 0.02 0.00 90 1014.5
20260510063504 73 117 1.0 5.0 0.00 0.02 0.00 90 1014.6
20260510063013 73 155 1.0 5.0 0.00 0.02 0.00 90 1014.7
20260510062507 73 139 1.0 3.0 0.00 0.02 0.00 90 1014.7
20260510062003 73 148 1.0 2.0 0.00 0.02 0.00 90 1014.8
20260510061509 73 107 0.0 2.0 0.00 0.02 0.00 90 1014.9
20260510061005 73 107 0.0 1.0 0.00 0.02 0.00 90 1014.9
20260510060506 73 107 0.0 2.0 0.00 0.02 0.00 90 1014.9
20260510060007 73 107 0.0 2.0 0.00 0.02 0.00 90 1015.0
20260510055503 73 105 0.0 2.0 0.00 0.02 0.00 90 1014.9
20260510055009 73 107 0.0 3.0 0.00 0.02 0.00 90 1015.1
20260510054512 73 130 0.0 3.0 0.00 0.02 0.00 90 1015.2
20260510054000 73 108 1.0 4.0 0.00 0.02 0.00 90 1015.3
20260510053509 73 115 1.0 4.0 0.00 0.02 0.00 90 1015.3
20260510053011 73 138 1.0 3.0 0.00 0.02 0.00 90 1015.3
20260510052504 73 96 1.0 3.0 0.00 0.02 0.00 90 1015.4
20260510052009 73 119 1.0 3.0 0.00 0.02 0.00 90 1015.5
20260510051504 73 95 0.0 2.0 0.00 0.02 0.00 90 1015.5
20260510051011 73 73 0.0 3.0 0.00 0.02 0.00 90 1015.5
20260510050503 73 75 0.0 3.0 0.00 0.02 0.00 89 1015.6
20260510050005 74 96 0.0 3.0 0.00 0.02 0.00 89 1015.5
20260510045507 74 86 0.0 3.0 0.00 0.02 0.00 90 1015.5
20260510045004 74 103 1.0 3.0 0.00 0.02 0.00 89 1015.6
20260510044509 74 87 1.0 3.0 0.00 0.02 0.00 89 1015.6
20260510044009 74 90 1.0 3.0 0.00 0.02 0.00 89 1015.6
20260510043504 74 82 1.0 3.0 0.00 0.02 0.00 89 1015.7
20260510043010 74 109 0.0 3.0 0.00 0.02 0.00 89 1015.8
20260510042507 75 86 1.0 5.0 0.00 0.02 0.00 89 1015.8
20260510042004 75 28 1.0 5.0 0.00 0.02 0.00 90 1015.9
20260510041513 75 35 2.0 4.0 0.00 0.02 0.00 90 1016.0
20260510041007 75 54 1.0 3.0 0.00 0.02 0.00 90 1016.0
20260510040508 75 45 1.0 3.0 0.00 0.02 0.00 90 1015.9
20260510040016 75 23 1.0 3.0 0.00 0.02 0.00 90 1016.0
20260510035505 75 13 1.0 4.0 0.00 0.02 0.02 90 1016.0
20260510035008 75 360 1.0 4.0 0.00 0.02 0.02 90 1015.9
20260510034512 75 355 0.0 3.0 0.00 0.02 0.02 90 1015.9
20260510034004 75 355 0.0 3.0 0.00 0.02 0.02 90 1015.8
20260510033509 75 352 2.0 3.0 0.00 0.02 0.02 90 1015.8
20260510033012 75 139 1.0 2.0 0.00 0.02 0.02 90 1015.6
20260510032512 75 139 0.0 1.0 0.01 0.02 0.02 90 1015.6
20260510032004 75 139 0.0 2.0 0.02 0.02 0.02 90 1015.5
20260510031510 76 139 0.0 2.0 0.02 0.02 0.02 90 1015.5
20260510031009 76 139 1.0 2.0 0.02 0.02 0.02 90 1015.4
20260510030507 76 163 0.0 2.0 0.02 0.02 0.02 90 1015.6
20260510030008 76 57 0.0 2.0 0.02 0.02 0.02 89 1015.4
20260510025507 76 57 1.0 2.0 0.02 0.02 0.02 89 1015.5
20260510025009 76 88 0.0 2.0 0.02 0.02 0.02 89 1015.4
20260510024512 76 88 0.0 1.0 0.02 0.02 0.02 88 1015.5
20260510024007 76 88 0.0 1.0 0.02 0.02 0.02 88 1015.5
20260510023504 77 88 0.0 2.0 0.02 0.02 0.02 87 1015.5
20260510023035 77 77 1.0 2.0 0.02 0.02 0.02 87 1015.4
20260510022507 77 180 0.0 5.0 0.01 0.01 0.01 86 1015.5
20260510022004 77 186 1.0 5.0 0.00 0.00 0.00 84 1015.4
20260510021524 77 178 2.0 4.0 0.00 0.00 0.00 84 1015.3
20260510021005 77 178 1.0 2.0 0.00 0.00 0.00 84 1015.3
20260510020507 76 235 0.0 2.0 0.00 0.00 0.00 84 1015.2
20260510020020 76 235 0.0 1.0 0.00 0.00 0.00 84 1015.2
20260510015508 76 296 0.0 0.0 0.00 0.00 0.00 84 1015.0
20260510015007 77 296 0.0 0.0 0.00 0.00 0.00 84 1015.1
20260510014519 77 296 0.0 1.0 0.00 0.00 0.00 84 1014.9
20260510014007 77 296 0.0 1.0 0.00 0.00 0.00 84 1014.8
20260510013507 77 296 0.0 2.0 0.00 0.00 0.00 83 1015.0
20260510013014 77 296 0.0 2.0 0.00 0.00 0.00 83 1014.9
20260510012507 77 296 1.0 2.0 0.00 0.00 0.00 82 1014.8
20260510012011 77 216 0.0 0.0 0.00 0.00 0.00 83 1014.6
20260510011518 78 216 0.0 1.0 0.00 0.00 0.00 82 1014.7
20260510011012 78 216 0.0 1.0 0.00 0.00 0.00 82 1014.8
20260510010508 78 216 0.0 0.0 0.00 0.00 0.00 82 1014.6
20260510010016 78 216 0.0 1.0 0.00 0.00 0.00 81 1014.5
20260510005508 78 216 0.0 2.0 0.00 0.00 0.00 81 1014.4
20260510005004 79 216 0.0 2.0 0.00 0.00 0.00 81 1014.4
20260510004507 79 216 1.0 3.0 0.00 0.00 0.00 80 1014.4
20260510004000 79 273 0.0 4.0 0.00 0.00 0.00 80 1014.4
20260510003501 79 311 2.0 5.0 0.00 0.00 0.00 80 1014.3
20260510003005 79 297 1.0 5.0 0.00 0.00 0.00 79 1014.2
20260510002504 79 5 1.0 4.0 0.00 0.00 0.00 80 1014.3
20260510002000 79 328 2.0 4.0 0.00 0.00 0.00 79 1014.3
20260510001504 80 339 1.0 7.0 0.00 0.00 0.00 80 1014.2
20260510001004 80 293 2.0 7.0 0.00 0.00 0.00 80 1014.2
20260510000504 80 271 2.0 6.0 0.00 0.00 0.00 80 1014.3
20260510000004 80 288 2.0 6.0 0.00 0.00 0.00 80 1014.3
20260509235503 80 305 1.0 4.0 0.00 0.00 0.00 77 1014.1
20260509235003 80 298 1.0 6.0 0.00 0.00 0.00 77 1013.8
20260509234503 80 331 2.0 7.0 0.00 0.00 0.00 77 1013.8
20260509234004 80 300 2.0 8.0 0.00 0.00 0.00 76 1014.0
20260509233505 80 277 4.0 10.0 0.00 0.00 0.00 76 1013.9
20260509233016 81 306 2.0 12.0 0.00 0.00 0.00 75 1013.9
20260509232502 81 296 6.0 12.0 0.00 0.00 0.00 75 1013.9
20260509232004 81 287 7.0 11.0 0.00 0.00 0.00 75 1013.9
20260509231509 81 301 2.0 11.0 0.00 0.00 0.00 74 1013.8
20260509231003 82 344 4.0 12.0 0.00 0.00 0.00 73 1013.7
20260509230503 82 304 7.0 14.0 0.00 0.00 0.00 72 1013.8
20260509230008 82 319 10.0 14.0 0.00 0.00 0.00 72 1013.8
20260509225504 82 274 6.0 12.0 0.00 0.00 0.00 71 1013.7
20260509225003 82 277 5.0 12.0 0.00 0.00 0.00 71 1013.6
20260509224504 83 294 7.0 14.0 0.00 0.00 0.00 70 1013.7
20260509224003 83 319 4.0 14.0 0.00 0.00 0.00 70 1013.8
20260509223511 83 299 6.0 14.0 0.00 0.00 0.00 70 1013.7
20260509223006 84 276 5.0 14.0 0.00 0.00 0.00 69 1013.6
20260509222503 84 308 4.0 14.0 0.00 0.00 0.00 69 1013.6
20260509222006 84 281 3.0 14.0 0.00 0.00 0.00 68 1013.4
20260509221504 84 290 6.0 13.0 0.00 0.00 0.00 67 1013.3
20260509221004 84 254 7.0 13.0 0.00 0.00 0.00 68 1013.3
20260509220505 84 265 4.0 14.0 0.00 0.00 0.00 67 1013.1
20260509220007 85 249 7.0 14.0 0.00 0.00 0.00 67 1013.2
20260509215504 85 263 4.0 12.0 0.00 0.00 0.00 65 1013.2
20260509215006 85 242 4.0 12.0 0.00 0.00 0.00 64 1013.0
20260509214504 85 303 3.0 14.0 0.00 0.00 0.00 65 1012.9
20260509214001 85 234 4.0 14.0 0.00 0.00 0.00 65 1012.9
20260509213505 85 279 6.0 16.0 0.00 0.00 0.00 65 1013.0
20260509213012 86 229 7.0 16.0 0.00 0.00 0.00 63 1012.8
20260509212508 86 186 6.0 14.0 0.00 0.00 0.00 62 1012.9
20260509212004 86 279 9.0 14.0 0.00 0.00 0.00 62 1012.8
20260509211507 87 226 4.0 14.0 0.00 0.00 0.00 64 1012.9
20260509211004 88 297 6.0 14.0 0.00 0.00 0.00 62 1012.8
20260509210504 88 267 8.0 14.0 0.00 0.00 0.00 61 1012.7
20260509210005 88 302 9.0 16.0 0.00 0.00 0.00 61 1012.6
20260509205506 88 260 9.0 16.0 0.00 0.00 0.00 60 1012.7
20260509205011 88 280 6.0 15.0 0.00 0.00 0.00 58 1012.7
20260509204504 88 257 6.0 15.0 0.00 0.00 0.00 59 1012.6
20260509204006 88 276 5.0 13.0 0.00 0.00 0.00 61 1012.7
20260509203510 87 277 7.0 16.0 0.00 0.00 0.00 60 1012.7
20260509203026 88 194 9.0 16.0 0.00 0.00 0.00 57 1012.8
20260509202507 88 248 9.0 16.0 0.00 0.00 0.00 59 1012.5
20260509202008 87 196 9.0 18.0 0.00 0.00 0.00 60 1012.6
20260509201510 88 184 7.0 18.0 0.00 0.00 0.00 58 1012.6
20260509201004 88 234 8.0 17.0 0.00 0.00 0.00 58 1012.6
20260509200507 88 203 6.0 14.0 0.00 0.00 0.00 58 1012.7
20260509200008 89 242 7.0 17.0 0.00 0.00 0.00 58 1012.7
20260509195509 88 265 9.0 17.0 0.00 0.00 0.00 57 1012.7
20260509195004 88 250 8.0 16.0 0.00 0.00 0.00 57 1012.8
20260509194505 88 287 7.0 16.0 0.00 0.00 0.00 58 1012.8
20260509194008 88 254 7.0 19.0 0.00 0.00 0.00 55 1012.9
20260509193504 89 279 8.0 25.0 0.00 0.00 0.00 56 1013.0
20260509193012 89 262 7.0 25.0 0.00 0.00 0.00 55 1013.0
20260509192507 90 261 7.0 19.0 0.00 0.00 0.00 54 1012.9
20260509192003 89 291 8.0 17.0 0.00 0.00 0.00 54 1012.9
20260509191507 89 259 7.0 17.0 0.00 0.00 0.00 56 1013.0
20260509191011 89 255 10.0 21.0 0.00 0.00 0.00 56 1013.1
20260509190504 89 218 11.0 21.0 0.00 0.00 0.00 57 1013.0
20260509190025 88 242 10.0 21.0 0.00 0.00 0.00 57 1013.1
20260509185504 88 219 10.0 21.0 0.00 0.00 0.00 56 1013.3
20260509185008 89 270 6.0 18.0 0.00 0.00 0.00 58 1013.4
20260509184517 89 253 7.0 14.0 0.00 0.00 0.00 57 1013.6
20260509184004 90 195 7.0 14.0 0.00 0.00 0.00 56 1013.7
20260509183510 90 252 7.0 16.0 0.00 0.00 0.00 58 1013.7
20260509183021 91 193 6.0 16.0 0.00 0.00 0.00 56 1013.7